Location: Gradaro
(45.0833°N, 10.8833°E)
Time: 14:48:39
(UTC+00:00)

Gbstr 26 Del rocket - Pass Details

Date: 29 November 2020
Orbit: 493 x 1263 km, 51.8° (Epoch: 25 January)

Event Time Altitude Azimuth Distance (km) Brightness Sun altitude
Exits shadow 04:43:24 53° 287° (WNW) 617 2.6 -18.7°
Maximum altitude 04:44:12 79° 213° (SSW) 514 2.5 -18.6°
Drops below altitude 10° 04:48:08 10° 126° (SE) 1,778 6.4 -17.9°
Sets 04:50:27 0° 125° (SE) 2,740 7.7 -17.5°
